Location: Arrington
(35.8681°N, 86.7092°W)
Time: 18:50:25
(UTC+00:00)

CENTAUR R/B - Pass Details

Date: 23 November 2019
Orbit: 779 x 1409 km, 63.4° (Epoch: 01 December)

Event Time Altitude Azimuth Distance (km) Brightness Sun altitude
Rises 00:04:28 0° 336° (NNW) 4,113 5.9 -17.9°
Reaches altitude 10° 00:08:12 10° 354° (N) 3,253 5.2 -18.6°
Maximum altitude 00:13:39 19° 37° (NE) 2,726 4.4 -19.7°
Enters shadow 00:13:54 19° 40° (NE) 2,732 4.4 -19.7°
